Location: Bayshore Estates
(38.3640°N, 75.0724°W)
Time: 05:40:13
(UTC+00:00)

Daily predictions for brighter satellites

Satellite Brightness Start Highest point End
(mag) Time Altitude Azimuth Time Altitude Azimuth Time Altitude Azimuth
Hubble Space Telescope 2.5 00:00:47 10° SW 00:03:27 17° S 00:06:08 10° SE
Meteor 2-10 Rocket 4.2 00:03:27 10° SSW 00:08:24 59° W 00:13:22 10° N
NOSS 2-3 (D) 3.6 00:06:33 10° SW 00:10:10 64° NW 00:14:00 10° NNE
ATLAS 3B R/B 3.9 00:05:36 10° SSE 00:10:16 20° ESE 00:15:08 10° ENE
Cosmos 1025 Rocket 3.9 00:10:10 10° NNE 00:14:02 30° ENE 00:17:53 10° SE
Okean O Rocket 2.8 00:12:27 10° ESE 00:15:59 25° ENE 00:19:32 10° NNE
USA 281 4.2 00:12:57 10° ESE 00:18:28 30° NE 00:23:59 10° N
Resurs 01 Rocket 2.6 00:17:41 10° SE 00:21:29 29° ENE 00:25:17 10° N
YAOGAN 1 4.1 00:18:17 10° SSW 00:22:18 39° W 00:26:20 10° NNW
Cosmos 1656 Rocket 4.0 00:19:21 10° SSW 00:24:54 71° WNW 00:30:24 10° NNE
Cosmos 1975 Rocket 4.3 00:22:26 10° NNE 00:25:48 22° ENE 00:28:04 15° ESE
Cosmos 1302 Rocket 4.0 00:21:01 10° S 00:26:12 65° ESE 00:31:25 10° NNE
Cosmos 1346 Rocket 2.8 00:22:50 10° S 00:26:34 54° E 00:30:18 10° NNE
SJ-6B 2.8 00:24:26 10° SSE 00:28:22 86° WSW 00:32:21 10° NNW
OAO 3 Rocket 3.4 00:27:23 10° WSW 00:32:11 59° S 00:35:51 17° ESE
Cosmos 1328 3.9 00:29:41 10° N 00:33:21 46° E 00:36:42 12° SSE
DELTA 2 R/B (1) 3.8 00:29:50 10° WNW 00:35:24 65° SSW 00:39:37 17° ESE
PAYLOAD B 4.3 00:30:05 10° SSE 00:35:36 86° WSW 00:41:12 10° NNW
Cosmos 1782 Rocket 3.5 00:33:51 10° S 00:38:06 59° E 00:42:26 10° NNE
Iridium 921 4.5 00:36:21 10° N 00:39:51 83° W 00:43:19 10° S
ATLAS 5 CENTAUR R/B 1.6 00:39:34 10° S 00:42:29 29° ESE 00:45:30 10° NE
Cosmos 1892 2.7 00:39:21 10° N 00:42:55 74° W 00:46:27 10° S
Cosmos 1741 Rocket 4.5 00:38:00 10° NNW 00:43:11 63° WSW 00:48:21 10° S
Cosmos 1908 Rocket 4.3 00:40:40 10° SSW 00:44:52 54° W 00:49:07 10° N
USA 186 1.5 00:43:22 14° SSE 00:45:58 83° ENE 00:49:01 10° N
Cosmos 968 Rocket 3.4 00:42:01 10° NNW 00:47:09 87° WSW 00:52:16 10° SSE
CZ-4 R/B 2.1 00:44:17 10° S 00:48:10 54° W 00:52:01 10° NNW
SL-4 R/B 4.4 00:47:05 10° WNW 00:49:22 15° NNW 00:51:34 10° NNE
Milstar 3 4.5 00:41:17 10° SW 00:50:17 44° SSE 01:04:05 15° E
Feng Yun 1-1 Rocket 4.2 00:46:04 10° SSE 00:51:31 81° ENE 00:57:08 10° NNW
Cosmos 1455 2.4 00:50:24 10° SSW 00:53:55 64° W 00:57:28 10° N
USA 129 2.2 00:52:43 10° N 00:54:47 48° N 00:54:47 48° N
CSL-04 Debris 4.1 00:52:33 10° SSE 00:57:58 84° ENE 01:03:26 10° NNW
Cosmos 1953 4.0 00:59:12 10° SW 01:02:41 34° WNW 01:06:12 10° NNW
Timation 1 Rocket 4.4 00:57:54 10° NNW 01:03:52 78° WSW 01:08:36 17° SSE
Cosmos 1300 Rocket 3.5 01:00:18 10° S 01:04:38 86° W 01:09:02 10° N
CSL-04 Rocket 3.7 01:03:24 12° SSE 01:08:28 86° WSW 01:14:00 10° NNW
In-Cosmos 22 Rocket 4.1 01:04:42 10° N 01:10:05 63° E 01:13:01 27° SSE
Cosmos 2181 Rocket 4.1 01:04:16 10° SSW 01:10:24 75° W 01:16:39 10° N
Okean 2 Rocket 4.5 01:14:49 23° ENE 01:14:49 23° ENE 01:17:25 10° NNE
NOSS 3-1 (A) 3.1 01:10:48 10° S 01:15:17 44° ESE 01:20:24 10° NE
SJ 16-02 1.3 01:11:02 10° NNW 01:15:22 81° WSW 01:17:17 32° S
Cosmos 2369 Rocket 3.9 01:11:50 10° SW 01:16:58 34° WNW 01:22:07 10° N
Cosmos 1992 Rocket 4.0 01:15:41 10° SSW 01:20:53 82° WNW 01:26:07 10° NNE
CZ-4C R/B 2.8 01:17:36 10° NNE 01:21:02 88° ESE 01:21:31 63° S
MetOp-B 4.5 01:23:41 40° ESE 01:24:49 46° ENE 01:29:55 10° N
Cosmos 2098 Rocket 3.6 01:19:51 10° S 01:25:28 75° W 01:30:06 10° N
CZ-4B R/B 4.5 01:23:43 10° SSW 01:28:59 40° W 01:34:14 10° NNW
Okean-O 2.5 01:28:34 54° SSE 01:29:31 81° ENE 01:33:57 10° N
Terra 3.2 01:30:44 24° NE 01:30:44 24° NE 01:33:55 10° NNE
USA 234 3.7 01:28:21 26° SSE 01:32:01 54° SW 01:38:24 10° NW
Cosmos 1833 4.2 01:30:20 10° NNW 01:36:00 81° WSW 01:37:59 42° SSE
VEP-3 4.3 01:01:57 10° W 01:36:41 42° SSW 01:40:44 29° SSE
NOSS 3-1 (C) 3.8 01:34:09 10° SW 01:38:46 49° NW 01:44:14 10° NNE
Hubble Space Telescope 3.0 01:40:40 10° SW 01:41:39 14° SW 01:41:39 14° SW
USA 245 4.5 01:45:21 48° ENE 01:45:30 48° ENE 01:50:25 10° N
Ariane Rocket 3.9 01:47:05 33° NE 01:47:05 33° NE 01:50:56 10° N
Okean O Rocket 3.5 01:49:28 15° SW 01:52:08 26° W 01:55:49 10° NW
SPOT 3 Rocket 4.5 01:53:53 34° NE 01:53:53 34° NE 01:57:50 10° N
Nadezhda 3 Rocket 4.0 01:49:58 21° SSW 01:54:17 75° W 02:00:27 10° N
Cosmos 2239 Rocket 4.4 01:50:34 10° N 01:56:52 88° W 01:58:31 52° S
Resurs 01 Rocket 3.7 01:55:01 13° SW 01:57:53 23° W 02:01:23 10° NW
Cosmos 1486 Rocket 3.9 01:54:36 10° NNW 01:59:34 70° NE 01:59:34 70° NE
ATLAS 3B R/B 2.9 01:53:08 10° SW 02:00:04 76° WNW 02:07:35 10° NNE
USA 281 3.8 01:59:34 30° SSW 02:02:36 52° WSW 02:09:00 10° NNW
Iridium 4 Rocket 3.7 02:09:52 64° NE 02:09:52 64° NE 02:14:46 10° N
SPOT 5 3.7 02:24:44 50° WSW 02:24:57 50° W 02:30:08 10° NNW
ATLAS 5 CENTAUR R/B 3.9 02:24:16 10° W 02:26:27 16° NW 02:28:45 10° N
Cosmos 2227 Rocket 4.1 02:28:09 10° N 02:31:09 19° NE 02:31:09 19° NE
ERS-1 Rocket 3.8 02:36:16 49° NW 02:36:16 49° NW 02:40:08 10° NNW
CZ-4C R/B 4.2 02:44:14 10° NNW 02:50:25 29° NE 02:51:18 28° NE
Cosmos 2297 Rocket 3.4 02:56:07 10° NNW 02:59:36 37° N 02:59:36 37° N
COSMOS 2455 4.0 02:56:55 10° NNW 03:00:56 35° NNE 03:00:56 35° NNE
Terra 3.9 03:09:26 24° NW 03:09:26 24° NW 03:11:46 10° NNW
CENTAUR R/B 4.4 03:19:47 10° NNW 03:27:02 32° NE 03:28:19 31° ENE
Cosmos 2263 Rocket 4.4 03:31:55 10° N 03:34:00 18° NNE 03:34:00 18° NNE
Cosmos 2227 Rocket 4.4 04:11:10 10° NNW 04:12:58 21° NW 04:12:58 21° NW
CZ-4C R/B 3.9 04:31:57 10° NW 04:36:23 41° NW 04:36:23 41° NW
CENTAUR R/B 4.0 05:09:57 10° NW 05:15:26 46° NW 05:15:26 46° NW
SL-16 R/B 4.4 05:40:46 21° NNE 05:40:46 21° NNE 05:42:39 10° NNE
USA 267 4.3 06:04:36 39° N 06:04:36 39° N 06:08:57 10° NW
CZ-2D R/B 4.4 06:06:12 10° NE 06:08:14 20° NE 06:08:14 20° NE
CZ-2C R/B 4.3 06:35:48 31° NE 06:35:48 31° NE 06:39:35 10° N
Lacrosse 5 4.0 06:42:19 24° NNE 06:42:19 24° NNE 06:44:35 10° NNE
USA 238 DEB 4.4 06:42:49 10° NNW 06:48:04 51° NNW 06:48:04 51° NNW
USA 238 4.4 06:42:55 10° NNW 06:48:16 52° NNW 06:48:16 52° NNW
Cosmos 2333 Rocket 3.8 06:52:51 28° NNW 06:52:51 28° NNW 06:55:50 10° N
Resurs 1-4 Rocket 3.5 06:46:07 10° NNE 06:49:06 34° NNE 06:49:06 34° NNE
Cosmos 2360 Rocket 3.9 06:56:51 24° NNW 06:56:51 24° NNW 06:59:42 10° N
Cosmos 2322 Rocket 4.2 07:06:40 18° NNW 07:06:40 18° NNW 07:09:08 10° N
Cosmos 2278 Rocket 4.3 07:04:39 10° N 07:09:13 24° NE 07:13:45 10° ESE
IDEFIX/ARIANE 42P 4.0 07:05:58 10° N 07:08:47 32° N 07:08:47 32° N
Cosmos 2219 Rocket 3.4 07:14:08 33° NNW 07:14:08 33° NNW 07:17:37 10° N
RESURS DK-1 4.4 07:28:45 26° NE 07:28:45 26° NE 07:30:37 10° NNE
ADEOS II 2.6 07:32:44 10° N 07:36:45 51° NNW 07:36:45 51° NNW
Cosmos 1092 Rocket 4.5 07:40:20 41° SE 07:42:06 54° E 07:48:03 10° NNE
FENGYUN 3A 3.9 07:37:08 10° N 07:41:48 63° NNW 07:41:48 63° NNW
Cosmos 2026 Rocket 4.3 07:47:38 43° SSE 07:49:36 63° E 07:55:52 10° NNE
CZ-2D R/B 3.3 07:45:58 10° N 07:49:32 31° NW 07:49:32 31° NW
EO 1 Delta rocket 4.4 07:46:29 10° NNE 07:50:59 51° E 07:51:24 49° ESE
SL-16 R/B 2.4 07:51:51 69° SSW 07:52:36 80° WSW 07:58:50 10° NNW
Envisat 4.1 07:48:17 10° NNE 07:53:02 39° E 07:54:41 31° SE
UNK 3.7 08:02:07 74° N 08:02:07 74° N 08:06:20 10° NNW
Cosmos 1805 Rocket 3.9 07:59:22 10° N 08:02:57 60° N 08:02:57 60° N
Cosmos 1500 Rocket 4.2 07:59:51 10° N 08:03:03 46° NNW 08:03:03 46° NNW
Meteor 1-27 Rocket 3.6 08:04:15 68° SW 08:04:57 80° W 08:10:42 10° N
Cosmos 1943 Rocket 3.5 08:03:36 10° N 08:08:56 40° ENE 08:14:14 10° SE
CZ-4 R/B 3.9 08:05:26 10° NNE 08:10:11 72° ESE 08:10:51 61° SSE
Cosmos 1627 Rocket 4.4 08:08:19 45° S 08:10:26 90° WNW 08:16:50 10° N
COSMOS 2428 3.7 08:10:38 32° WNW 08:10:38 32° WNW 08:15:41 10° N
CZ-2C R/B 4.1 08:17:16 22° WNW 08:17:16 22° WNW 08:19:42 10° NW
Cosmos 1733 3.9 08:13:06 10° N 08:15:45 46° N 08:15:45 46° N
Cosmos 2237 Rocket 2.1 08:16:42 58° WSW 08:17:40 71° WNW 08:23:21 10° NNE
Cosmos 1980 3.7 08:18:04 56° WSW 08:18:58 64° WNW 08:24:36 10° NNE
YAOGAN 6 3.7 08:16:26 10° NNE 08:19:29 35° E 08:19:46 34° ESE
BlueWalker 3 4.2 08:16:33 10° NNW 08:19:42 23° NNE 08:22:50 10° E
Cosmos 2112 Rocket 4.2 08:20:47 39° S 08:22:46 71° ESE 08:28:06 10° NNE
Meteor 1-11 Rocket 3.8 08:18:09 10° NNW 08:23:30 50° W 08:23:44 50° WSW
Cosmos 1867 3.5 08:18:17 10° NW 08:23:42 65° WSW 08:29:03 10° SSE
CZ-2C R/B 4.2 08:19:30 10° N 08:23:31 28° WNW 08:23:31 28° WNW
Lacrosse 5 4.3 08:21:59 10° NW 08:24:06 12° NNW 08:26:13 10° N
ALOS 2.8 08:19:57 10° N 08:23:56 40° WNW 08:23:56 40° WNW
ATLAS 2AS CENTAUR R/B 3.3 08:19:52 25° S 08:24:19 58° ESE 08:31:24 10° NE
Sich 1 3.6 08:25:00 10° NNW 08:28:05 40° NW 08:28:05 40° NW
Cosmos 1340 Rocket 2.7 08:28:56 67° SSE 08:29:22 79° E 08:33:13 10° NNE
Resurs 1-4 Rocket 4.0 08:27:49 10° NNW 08:30:10 14° WNW 08:30:10 14° WNW
Cosmos 1328 Rocket 3.9 08:31:29 26° SSE 08:33:51 63° E 08:38:13 10° NNE
Meteor 2-9 Rocket 4.2 08:28:45 10° NNW 08:34:00 55° W 08:35:52 37° SSW
Cosmos 1805 3.3 08:33:33 10° N 08:37:15 71° E 08:39:21 24° SSE
Cosmos 2344 4.2 08:28:18 10° NW 08:37:21 80° WSW 08:50:14 10° SSE
Cosmos 1743 Rocket 4.2 08:34:19 10° NNW 08:37:37 37° WNW 08:37:37 37° WNW
IRS-1D 3.6 08:36:50 10° NNE 08:41:57 80° ESE 08:45:39 20° S
Cosmos 1633 Rocket 3.5 08:41:06 10° N 08:45:24 61° E 08:49:42 10° SSE
NOSS 2-2 (C) 4.2 08:44:23 10° NNW 08:49:16 88° ENE 08:56:16 10° SSE
Cosmos 1680 Rocket 3.7 08:47:51 34° SW 08:49:52 54° WNW 08:55:06 10° N
Cosmos 2278 Rocket 2.4 08:48:05 10° NW 08:53:30 47° WSW 08:58:53 10° S
Iridium 51 4.1 08:57:57 12° S 09:01:02 69° E 09:04:22 10° N
Cosmos 1420 Rocket 3.9 08:56:20 10° NNW 09:01:36 85° WSW 09:06:52 10° SSE
Cosmos 1461 2.9 09:01:28 10° NW 09:05:05 41° WSW 09:08:40 10° S
Cosmos 2056 Rocket 3.6 09:00:06 10° NNW 09:05:31 87° ENE 09:10:56 10° SSE
Cosmos 494 Rocket 4.1 09:02:26 10° S 09:07:36 75° ESE 09:12:44 10° NNE
SL-16 R/B 2.2 09:03:21 14° SSW 09:08:13 90° ESE 09:13:54 10° NNE
Cosmos 1151 Rocket 4.4 09:07:55 20° W 09:08:14 20° WNW 09:11:28 10° NNW
Cosmos 1674 3.9 09:07:42 10° SSE 09:10:54 38° E 09:14:07 10° NNE
CZ-2C R/B 2.9 09:06:07 10° N 09:11:03 47° WNW 09:14:38 18° SW
Cosmos 1553 Rocket 3.9 09:05:22 10° NNW 09:11:35 67° W 09:17:40 10° S
PAYLOAD A 4.2 09:09:50 10° N 09:14:33 48° WNW 09:18:05 16° SW
USA 308 2.5 09:12:47 25° SW 09:14:53 86° SE 09:18:48 10° NE
Cosmos 1939 Rocket 4.4 09:13:33 10° NNE 09:17:01 34° E 09:20:28 10° SSE
Cosmos 1766 3.5 09:13:32 10° N 09:17:13 66° E 09:20:51 10° SSE
Cosmos 1624 Rocket 3.9 09:12:40 10° NNW 09:17:53 73° WSW 09:23:02 10° S
Cosmos 921 Rocket 3.5 09:16:42 21° SW 09:19:05 40° WNW 09:23:09 10° N
Cosmos 1340 2.7 09:17:14 10° NNW 09:20:31 42° W 09:23:45 10° SSW
Cosmos 1626 2.2 09:18:46 21° SW 09:20:37 42° W 09:23:46 10° N
Cosmos 1975 3.4 09:20:00 10° NNW 09:23:28 33° W 09:26:57 10° SSW
Cosmos 1515 Rocket 3.5 09:19:05 10° S 09:23:31 79° W 09:27:59 10° N
Intercosmos 25 Rocket 4.1 09:21:46 10° NNW 09:25:14 37° W 09:30:11 10° SSW
ATLAS 5 CENTAUR R/B 3.3 09:26:07 10° NNW 09:31:09 49° NE 09:37:18 10° SE
Cosmos 1470 Rocket 3.5 09:27:11 10° NNW 09:31:32 64° W 09:35:54 10° S
Envisat 4.3 09:27:49 10° NNW 09:31:44 23° WNW 09:34:51 13° WSW
CBERS-1 4.0 09:26:58 10° NNE 09:32:06 87° WNW 09:37:11 10° SSW
Cosmos 1484 Rocket 2.5 09:29:02 10° N 09:32:39 82° WNW 09:36:12 10° SSW
ATLAS 3B R/B 4.4 09:27:13 10° NNW 09:34:30 41° NE 09:41:40 10° ESE
BREEZE-M DEB (TANK) 3.7 09:34:05 11° W 09:38:15 24° NW 09:40:28 10° NNE
H-2A R/B 3.0 09:37:30 10° NNE 09:40:49 58° E 09:44:05 10° S
YAOGAN 11 4.1 09:47:45 10° S 09:52:12 77° WSW 09:56:44 10° NNW
Cosmos 1943 Rocket 3.1 09:47:48 10° NW 09:52:24 26° WSW 09:57:01 10° SSW
H-2A R/B 2.1 09:48:45 10° N 09:53:41 62° WNW 09:58:44 10° SSW
COSMO-SKYMED 1 3.9 09:51:17 10° SE 09:55:24 45° ENE 09:59:33 10° N
Cosmos 1842 3.5 09:53:03 10° SSW 09:56:37 45° W 10:00:13 10° N
USA 290 2.2 09:54:08 10° NNW 09:57:09 53° WSW 10:00:08 10° S
BlueWalker 3 2.1 09:54:26 10° WNW 09:58:09 51° SW 10:01:50 10° SSE
Cosmos 1933 Rocket 3.5 09:54:33 10° NNW 09:58:51 62° W 10:03:07 10° S
